Location: Caltech
(34.1382°N, 118.1253°W)
Time: 02:25:47
(UTC-07:00)

Cosmos 2084 - Visible Passes

Search period start: 25 October 2014 00:00
Search period end: 03 November 2014 23:00
Orbit: 568 x 631 km, 62.8° (Epoch: 25 October)

Date Brightness Start Highest point End Pass type
(mag) Time Alt. Az. Time Alt. Az. Time Alt. Az.
31 Oct 6.1 19:52:05 10° N 19:52:09 10° N 19:52:09 10° N visible
01 Nov 5.8 20:02:18 10° N 20:03:10 15° N 20:03:10 15° N visible
02 Nov 5.6 19:12:52 10° NNW 19:14:18 20° NNW 19:14:18 20° NNW visible
03 Nov 5.4 17:45:54 10° NNE 17:48:07 13° NE 17:48:52 13° NE visible
03 Nov 5.5 19:23:43 10° NW 19:25:38 25° NW 19:25:38 25° NW visible
